Regional Weather Roundup
Issued by NWS Midland/Odessa, TX

Home | Current Version | Previous Version | Text Only | Print | Product List | Glossary On
Versions: 1 2 3 4 5 6 7 8 9 10 11 12 13 14 15 16 17 18 19 20 21 22 23 24 25 26 27 28 29 30 31 32 33 34 35 36 37 38 39 40 41 42 43 44 45 46 47 48 49 50
000
ASUS44 KMAF 211010
RWRMAF
MIDLAND AREA WEATHER ROUNDUP
NATIONAL WEATHER SERVICE MIDLAND TX
500 AM CDT SAT APR 21 2018

...IN SOUTHWEST TEXAS AND SOUTHEAST NEW MEXICO...

CITY           SKY/WX    TMP DP  RH WIND       PRES   REMARKS
ALPINE         PTCLDY    45  14  28 SW8       30.08S
ANDREWS        FAIR      55  55 100 SW9       29.89F
ARTESIA        FAIR      50  14  23 NW15      29.97R
BIG SPRING     CLOUDY    62  56  80 S20G25    29.91S
CARLSBAD       FAIR      56  14  19 NW21      29.94R
DRYDEN           N/A     63  58  83 N3        29.91S
FORT STOCKTON  CLOUDY    53  30  41 SW13      29.94R
GUAD PASS      FAIR      48  14  25 W21       30.01S
HOBBS          CLEAR     41  28  60 NW10      29.90S WCI  35
LAMESA         CLOUDY    61  54  77 S14       29.88F
MARFA          CLEAR     41   3  20 W7        30.07R WCI  36
MIDLAND AIRPK    N/A     62  57  83 S13G20    29.90S
MIDLAND INTL   CLEAR     60  57  89 S9        29.89R
ODESSA         CLEAR     59  56  89 S14       29.90S
PECOS          CLOUDY    58   8  13 SW12      29.93R
PRESIDIO       FAIR      68   6   9 W13       30.00R
SEMINOLE       PTCLDY    50  50 100 W8        29.90R FOG
SNYDER         CLOUDY    57  55  95 S13       29.90S
WINK           CLEAR     50  47  89 W7        29.90R
$$
...OTHER STATIONS IN TEXAS...

CITY           SKY/WX    TMP DP  RH WIND       PRES   REMARKS
ABILENE        CLOUDY    56  50  80 S15G29    29.91R
AMARILLO       CLOUDY    45  44  97 E16       29.95S WCI  38
AUSTIN         CLOUDY    60  56  86 N5        30.00R
BROWNSVILLE    CLOUDY    75  71  87 SE16      29.90F
CORPUS CHRISTI MOCLDY    69  66  90 SE10      29.91F
DALLAS FTW     MOCLDY    57  47  69 SE14      30.03F
DEL RIO        CLOUDY    65  63  93 E9        29.90F
EL PASO        FAIR      56  28  34 N9        30.05R
HOUSTON INT    CLOUDY    61  54  77 E8        30.01F
LUBBOCK        PTCLDY    54  51  90 S8        29.87F
SAN ANGELO     CLOUDY    58  57  97 E6        29.92S FOG
SAN ANTONIO    CLOUDY    63  59  87 SE8       29.96R
WACO           CLOUDY    56  48  74 NE6       30.04F
WICHITA FALLS  LGT RAIN  49  45  86 E10       30.16F
$$
...OTHER LOCATIONS IN NEW MEXICO...

CITY           SKY/WX    TMP DP  RH WIND       PRES   REMARKS
ALAMOGORDO     FAIR      48  27  43 NW9       30.04R
ALBUQUERQUE    FAIR      41  33  73 SW6       30.08R WCI  37
CANNON AFB     CLOUDY    45  45 100 N21       29.94  FOG     WCI  37
CLOVIS         CLOUDY    46  46 100 N21       29.94S FOG     WCI  38
HOLLOMAN AFB   FAIR      49  27  42 NW9       30.06R
ROSWELL        FAIR      52  25  35 NW12      29.96S
RUIDOSO        FAIR      36  27  69 NW7       30.07R WCI  30
SANTA FE       FAIR      28  21  75 CALM      30.02S
TRUTH OR CONSE FAIR      47  28  47 W14       30.09R
TUCUMCARI      CLOUDY    46  42  86 NE10      29.96F
$$




USA.gov is the U.S. government's official web portal to all federal, state and local government web resources and services.